Starlink 34288

operational
NORAD ID: 64673 Int'l Des: 2025-139 Owner: SPXS Country: US Constellation: starlink
LEOCIRCULAR

About Starlink 34288

Description loading...

Live Position

Loading 3D Globe...

Upcoming Passes

Altitude History

Altitude vs Time

uPlot chart will show altitude changes over time

Two-Line Element Set

1 64673U 25139K 26062.47647265 .00027785 00000-0 94691-3 0 9994
2 64673 53.1589 155.8430 0001502 64.7132 295.4024 15.30192947 39331
Epoch: Mar 3, 2026 • Age: 22 hours

Current Status

Altitude 490.9 km
Velocity 7.62 km/s
Sub-Earth Point -44.81°S, 27.78°W
Launch Date Jun 28, 2025
Age 0.6 years
Type internet

Technical Details

Classification Payload
Mass 575.00 kg
Dry Mass 530.00 kg
Total Mass 575.00 kg
Length 0.30 m
Diameter 4.10 m
Span 29.00 m
Shape Box + pan
Manufacturer SPXS
Bus Type Starlink V2MO
Phase Status In Orbit
Owner/State SPXS/US

Large Constellations

Loading constellations...